FW6147 Weather Reports


time (UTC)temp
F
wind
direction
speed
knots
gust
knots
rain 1hr
in
rain 24hr
in
rain mn
in
humidity
%
barometer
mb
20260905175053 85 338 0.9 6.1 0.00 0.02 0.00 38 1022.3
20260905174613 85 338 2.6 6.1 0.00 0.02 0.00 39 1022.3
20260905174054 85 350 0.9 6.1 0.00 0.02 0.00 40 1022.3
20260905173552 85 320 1.7 6.1 0.00 0.02 0.00 40 1022.4
20260905173104 84 359 2.6 6.1 0.00 0.02 0.00 41 1022.4
20260905172556 84 360 3.5 6.1 0.00 0.02 0.00 41 1022.5
20260905172056 85 207 2.6 4.3 0.00 0.02 0.00 40 1022.5
20260905171607 84 139 1.7 3.5 0.00 0.02 0.00 41 1022.4
20260905171056 84 59 1.7 5.2 0.00 0.02 0.00 42 1022.5
20260905170554 84 54 2.6 5.2 0.00 0.02 0.00 41 1022.5
20260905165557 83 51 2.6 4.3 0.00 0.02 0.00 43 1022.5
20260905165054 83 39 1.7 4.3 0.00 0.02 0.00 44 1022.6
20260905164605 83 26 2.6 4.3 0.00 0.02 0.00 45 1022.6
20260905164054 82 0 1.7 4.3 0.00 0.02 0.00 46 1022.7
20260905163555 82 58 0.9 4.3 0.00 0.02 0.00 48 1022.6
20260905163102 82 60 1.7 4.3 0.00 0.02 0.00 48 1022.6
20260905162555 82 60 1.7 4.3 0.00 0.02 0.00 47 1022.6
20260905162055 82 82 1.7 4.3 0.00 0.02 0.00 49 1022.5
20260905161559 81 139 0.9 3.5 0.00 0.02 0.00 49 1022.5
20260905161054 81 35 0.9 3.5 0.00 0.02 0.00 51 1022.5
20260905160554 81 35 0.9 3.5 0.00 0.02 0.00 52 1022.6
20260905160107 80 0 0.9 3.5 0.00 0.02 0.00 53 1022.7
20260905155554 80 49 1.7 3.5 0.00 0.02 0.00 53 1022.7
20260905155053 79 49 0.9 3.5 0.00 0.02 0.00 56 1022.6
20260905154608 79 0 0.9 2.6 0.00 0.02 0.00 56 1022.6
20260905154055 79 56 0.9 3.5 0.00 0.02 0.00 57 1022.6
20260905153555 78 0 1.7 3.5 0.00 0.02 0.00 58 1022.6
20260905153100 78 0 0.9 2.6 0.00 0.02 0.00 59 1022.6
20260905152554 78 304 0.9 2.6 0.00 0.02 0.00 61 1022.8
20260905152054 77 297 0.9 3.5 0.00 0.02 0.00 61 1022.6
20260905151601 76 297 0.9 3.5 0.00 0.02 0.00 64 1022.5
20260905151054 76 295 0.9 3.5 0.00 0.02 0.00 66 1022.4
20260905150600 75 285 1.7 3.5 0.00 0.02 0.00 69 1022.4
20260905150115 74 243 0.0 2.6 0.00 0.02 0.00 72 1022.6
20260905145554 74 238 0.0 1.7 0.00 0.02 0.00 73 1022.6
20260905145054 73 0 0.0 0.9 0.00 0.02 0.00 74 1022.5
20260905144602 73 0 0.0 1.7 0.00 0.02 0.00 75 1022.5
20260905144056 73 0 0.0 2.6 0.00 0.02 0.00 76 1022.5
20260905143552 73 0 0.9 2.6 0.00 0.02 0.00 77 1022.4
20260905143104 72 226 1.7 2.6 0.00 0.02 0.00 78 1022.4
20260905142556 72 224 0.9 2.6 0.00 0.02 0.00 80 1022.4
20260905142053 71 0 0.0 0.9 0.00 0.02 0.00 83 1022.4
20260905141603 70 0 0.0 0.0 0.00 0.02 0.00 86 1022.3
20260905141055 69 0 0.0 0.9 0.00 0.02 0.00 87 1022.3
20260905140554 68 0 0.0 1.7 0.00 0.02 0.00 87 1022.2
20260905140106 67 0 0.0 1.7 0.00 0.02 0.00 88 1022.2
20260905135558 66 0 0.0 1.7 0.00 0.02 0.00 89 1022.1
20260905135052 66 224 0.0 1.7 0.00 0.02 0.00 89 1022.1
20260905134605 65 224 0.9 1.7 0.00 0.02 0.00 89 1022.1
20260905134052 65 224 0.0 1.7 0.00 0.02 0.00 89 1022.0
20260905133556 65 0 0.0 2.6 0.00 0.02 0.00 89 1022.0
20260905133105 65 0 0.0 3.5 0.00 0.02 0.00 89 1021.8
20260905132558 64 224 0.9 3.5 0.00 0.02 0.00 88 1021.7
20260905132053 65 224 0.9 3.5 0.00 0.02 0.00 88 1021.7
20260905131607 65 223 1.7 2.6 0.00 0.02 0.00 89 1021.5
20260905131054 65 223 0.9 2.6 0.00 0.02 0.00 89 1021.5
20260905130555 65 223 0.9 1.7 0.00 0.02 0.00 89 1021.5
20260905130108 64 223 0.0 1.7 0.00 0.02 0.00 88 1021.6
20260905125552 65 223 0.0 1.7 0.00 0.02 0.00 88 1021.5
20260905125052 65 223 0.0 1.7 0.00 0.02 0.00 88 1021.5
20260905124604 65 0 0.0 2.6 0.00 0.02 0.00 88 1021.3
20260905124051 65 0 0.0 2.6 0.00 0.02 0.00 88 1021.3
20260905123555 65 0 0.9 3.5 0.00 0.02 0.00 88 1021.1
20260905123102 65 0 1.7 3.5 0.00 0.02 0.00 88 1021.1
20260905122556 65 213 1.7 3.5 0.00 0.02 0.00 88 1021.0
20260905122055 65 75 0.0 2.6 0.00 0.02 0.00 87 1021.0
20260905121604 65 75 0.0 2.6 0.00 0.02 0.00 87 1021.1
20260905121055 65 75 0.0 0.0 0.00 0.02 0.00 87 1021.0
20260905120554 66 0 0.0 0.0 0.00 0.02 0.00 87 1021.0
20260905120105 66 0 0.0 0.0 0.00 0.02 0.00 87 1021.0
20260905115554 66 0 0.0 0.0 0.00 0.02 0.00 87 1021.0
20260905115056 66 0 0.0 0.0 0.00 0.02 0.00 86 1020.9
20260905114605 67 0 0.0 0.0 0.00 0.02 0.00 86 1020.9
20260905114054 67 0 0.0 0.0 0.00 0.02 0.00 86 1020.9
20260905113554 67 0 0.0 0.0 0.00 0.02 0.00 85 1021.0
20260905113117 67 0 0.0 0.0 0.00 0.02 0.00 85 1020.9
20260905112554 67 0 0.0 0.0 0.00 0.02 0.00 85 1021.0
20260905112055 67 0 0.0 0.0 0.00 0.02 0.00 85 1020.9
20260905111602 68 0 0.0 0.0 0.00 0.02 0.00 84 1021.0
20260905111055 68 0 0.0 0.0 0.00 0.02 0.00 84 1021.0
20260905110555 68 0 0.0 0.0 0.00 0.02 0.00 84 1021.0
20260905110101 68 0 0.0 0.0 0.00 0.02 0.00 84 1021.0
20260905105554 69 0 0.0 0.0 0.00 0.02 0.00 84 1021.0
20260905105056 69 0 0.0 0.0 0.00 0.02 0.00 83 1020.9
20260905104605 69 0 0.0 0.0 0.00 0.02 0.00 83 1020.8
20260905104054 69 0 0.0 0.0 0.00 0.02 0.00 83 1020.9
20260905103554 69 0 0.0 0.0 0.00 0.02 0.00 82 1021.0
20260905103103 69 0 0.0 0.0 0.00 0.02 0.00 82 1020.9
20260905102555 69 0 0.0 0.0 0.00 0.02 0.00 83 1020.8
20260905102054 69 0 0.0 0.0 0.00 0.02 0.00 83 1020.8
20260905101600 69 0 0.0 0.0 0.00 0.02 0.00 83 1020.9
20260905101055 69 0 0.0 0.0 0.00 0.02 0.00 83 1020.8
20260905100555 69 0 0.0 0.0 0.00 0.02 0.00 83 1020.8
20260905100105 69 0 0.0 0.0 0.00 0.02 0.00 83 1020.7
20260905095554 69 0 0.0 0.0 0.00 0.02 0.00 83 1020.7
20260905095055 69 0 0.0 0.0 0.00 0.02 0.00 83 1020.7
20260905094602 69 0 0.0 0.0 0.00 0.02 0.00 83 1020.6
20260905094054 69 0 0.0 0.0 0.00 0.02 0.00 83 1020.7
20260905093555 69 0 0.0 0.0 0.00 0.02 0.00 83 1020.7
20260905093107 69 0 0.0 0.0 0.00 0.02 0.00 84 1020.7
20260905092557 70 0 0.0 0.0 0.00 0.02 0.00 83 1020.7
20260905092054 70 0 0.0 0.0 0.00 0.02 0.00 83 1020.8
20260905091604 70 0 0.0 0.0 0.00 0.02 0.00 83 1020.8
20260905091054 70 0 0.0 0.0 0.00 0.02 0.00 83 1020.8
20260905090555 70 0 0.0 0.0 0.00 0.02 0.00 83 1020.8
20260905085555 70 0 0.0 0.0 0.00 0.02 0.00 83 1021.0
20260905085054 70 0 0.0 0.0 0.00 0.02 0.00 83 1021.0
20260905084603 70 0 0.0 0.0 0.00 0.02 0.00 83 1020.9
20260905084056 70 0 0.0 0.0 0.00 0.02 0.00 83 1020.9
20260905083555 70 0 0.0 0.0 0.00 0.02 0.00 83 1020.9
20260905083101 70 0 0.0 0.0 0.00 0.02 0.00 83 1020.9
20260905082554 70 0 0.0 0.0 0.00 0.02 0.00 83 1021.0
20260905082054 70 0 0.0 0.0 0.00 0.02 0.00 83 1020.9
20260905081613 70 0 0.0 0.0 0.00 0.02 0.00 83 1021.0
20260905081055 70 0 0.0 0.0 0.00 0.02 0.00 83 1021.0
20260905080557 70 0 0.0 0.0 0.00 0.02 0.00 83 1021.2
20260905080101 70 0 0.0 0.0 0.00 0.02 0.00 83 1021.1
20260905075555 70 0 0.0 0.0 0.00 0.02 0.00 83 1021.0
20260905075054 70 0 0.0 0.0 0.00 0.02 0.00 83 1021.2
20260905074600 70 0 0.0 0.0 0.00 0.02 0.00 83 1021.1
20260905074054 70 0 0.0 0.0 0.00 0.02 0.00 83 1021.2
20260905073556 70 0 0.0 0.0 0.00 0.02 0.00 83 1021.3
20260905073103 70 0 0.0 0.0 0.00 0.02 0.00 82 1021.3
20260905072555 70 0 0.0 0.0 0.00 0.02 0.00 82 1021.3
20260905072054 70 0 0.0 0.9 0.00 0.02 0.00 82 1021.2
20260905071608 70 0 0.0 0.9 0.00 0.02 0.00 82 1021.3
20260905071054 70 0 0.0 0.9 0.00 0.02 0.00 82 1021.3
20260905070554 70 0 0.0 0.9 0.00 0.02 0.00 81 1021.3
20260905070105 70 0 0.0 0.9 0.00 0.02 0.00 81 1021.2
20260905065554 71 0 0.0 0.9 0.00 0.02 0.02 80 1021.3
20260905065054 71 0 0.0 0.9 0.00 0.02 0.02 80 1021.5
20260905064601 71 0 0.0 0.9 0.00 0.02 0.02 79 1021.4
20260905064054 71 0 0.0 0.9 0.00 0.02 0.02 79 1021.5
20260905063555 71 0 0.0 0.9 0.00 0.02 0.02 78 1021.4
20260905063111 71 0 0.0 0.9 0.00 0.02 0.02 78 1021.4
20260905062552 71 0 0.0 0.9 0.00 0.02 0.02 78 1021.4
20260905062055 71 0 0.0 1.7 0.00 0.02 0.02 78 1021.4
20260905061615 71 75 0.0 1.7 0.00 0.02 0.02 79 1021.5
20260905061055 72 0 0.0 0.9 0.00 0.02 0.02 79 1021.5
20260905060554 72 0 0.0 1.7 0.00 0.02 0.02 78 1021.5
20260905055554 72 75 0.0 1.7 0.00 0.02 0.02 77 1021.4
20260905055054 72 0 0.0 1.7 0.00 0.02 0.02 76 1021.4
20260905054600 72 0 0.0 1.7 0.00 0.02 0.02 76 1021.5
20260905054054 72 75 0.9 1.7 0.00 0.02 0.02 76 1021.5
20260905053554 72 0 0.0 2.6 0.00 0.02 0.02 75 1021.4
20260905053105 73 0 0.0 4.3 0.00 0.02 0.02 75 1021.4
20260905052554 73 75 1.7 4.3 0.00 0.02 0.02 74 1021.4
20260905052055 73 61 1.7 3.5 0.00 0.02 0.02 73 1021.3
20260905051605 74 60 2.6 3.5 0.00 0.02 0.02 70 1021.3
20260905051054 74 63 1.7 3.5 0.00 0.02 0.02 67 1021.3
20260905050555 75 295 1.7 3.5 0.00 0.02 0.02 65 1021.3
20260905045556 76 253 0.0 2.6 0.00 0.02 0.02 62 1021.3
20260905045054 76 0 0.0 1.7 0.00 0.02 0.02 61 1021.2
20260905044603 76 0 0.0 1.7 0.00 0.02 0.02 59 1021.1
20260905044053 76 0 0.0 2.6 0.00 0.02 0.02 59 1021.1
20260905043556 77 0 0.0 2.6 0.00 0.02 0.02 58 1021.1
20260905043100 77 253 0.9 2.6 0.00 0.02 0.02 58 1021.1
20260905042553 77 253 0.0 2.6 0.00 0.02 0.02 58 1021.2
20260905042055 77 0 0.9 2.6 0.00 0.02 0.02 57 1021.2
20260905041613 77 253 0.0 2.6 0.00 0.02 0.02 57 1021.2
20260905041053 77 253 0.0 2.6 0.00 0.02 0.02 57 1021.2
20260905040553 77 253 0.0 2.6 0.00 0.02 0.02 57 1021.2
20260905040105 77 253 0.9 2.6 0.00 0.02 0.02 56 1021.3
20260905035554 77 253 0.9 2.6 0.00 0.02 0.02 56 1021.3
20260905035053 76 253 1.7 2.6 0.00 0.02 0.02 56 1021.1
20260905034605 76 253 0.9 2.6 0.00 0.02 0.02 58 1021.1
20260905034055 76 255 0.9 2.6 0.00 0.02 0.02 59 1021.1
20260905033552 76 255 0.9 2.6 0.00 0.02 0.02 60 1021.1
20260905033122 76 255 0.0 2.6 0.00 0.02 0.02 60 1021.0
20260905032556 76 255 0.9 2.6 0.00 0.02 0.02 60 1021.0
20260905032055 76 255 0.9 2.6 0.00 0.02 0.02 60 1020.9
20260905031611 76 255 0.9 2.6 0.00 0.02 0.02 61 1020.7
20260905031054 76 255 0.9 2.6 0.00 0.02 0.02 61 1020.6
20260905030554 77 255 1.7 2.6 0.00 0.02 0.02 60 1020.6
20260905030109 77 255 0.9 3.5 0.00 0.02 0.02 60 1020.4
20260905025554 77 0 0.9 3.5 0.00 0.02 0.02 59 1020.4
20260905025054 77 257 1.7 2.6 0.00 0.02 0.02 59 1020.3
20260905024602 77 243 0.9 2.6 0.00 0.02 0.02 58 1020.3
20260905024054 77 243 0.9 2.6 0.00 0.02 0.02 58 1020.2
20260905023557 77 243 0.9 3.5 0.00 0.02 0.02 58 1020.1
20260905023105 77 243 0.9 3.5 0.00 0.02 0.02 59 1020.1
20260905022557 77 243 1.7 3.5 0.00 0.02 0.02 59 1020.1
20260905022054 77 244 1.7 3.5 0.00 0.02 0.02 59 1020.0
20260905021600 78 220 1.7 4.3 0.00 0.02 0.02 59 1020.0
20260905021056 78 219 1.7 4.3 0.00 0.02 0.02 59 1019.9
20260905020557 78 229 1.7 5.2 0.00 0.02 0.02 58 1019.9
20260905020112 78 229 1.7 5.2 0.00 0.02 0.02 58 1019.9
20260905015555 79 224 1.7 5.2 0.00 0.02 0.02 57 1020.0
20260905015055 79 253 0.9 2.6 0.00 0.02 0.02 54 1020.0
20260905014605 79 0 0.0 1.7 0.00 0.02 0.02 55 1019.9
20260905014054 79 0 0.0 0.0 0.00 0.02 0.02 54 1020.0
20260905013554 80 0 0.0 0.0 0.00 0.02 0.02 53 1019.9
20260905013112 80 0 0.0 0.0 0.00 0.02 0.02 53 1020.0
20260905012554 80 0 0.0 0.0 0.00 0.02 0.02 52 1020.1
20260905012053 80 0 0.0 0.0 0.00 0.02 0.02 52 1020.0
20260905011632 80 0 0.0 1.7 0.00 0.02 0.02 51 1020.0
20260905011055 80 0 0.0 1.7 0.00 0.02 0.02 52 1019.9
20260905010553 81 0 0.0 1.7 0.00 0.02 0.02 52 1019.9
20260905010105 81 0 0.0 1.7 0.00 0.02 0.02 52 1019.8
20260905005551 81 0 0.9 2.6 0.00 0.02 0.02 51 1019.8
20260905005053 81 283 0.0 2.6 0.00 0.02 0.02 50 1019.7
20260905004601 82 283 0.0 2.6 0.00 0.02 0.02 51 1019.8
20260905004054 82 0 0.0 3.5 0.00 0.02 0.02 51 1019.8
20260905003556 82 283 0.0 3.5 0.00 0.02 0.02 51 1019.8
20260905003101 82 283 0.0 2.6 0.00 0.02 0.02 50 1019.8
20260905002553 82 0 0.0 2.6 0.00 0.02 0.02 51 1019.8
20260905002054 82 282 0.0 4.3 0.00 0.02 0.02 51 1019.7
20260905001605 83 283 0.9 5.2 0.00 0.02 0.02 52 1019.6
20260905001057 83 286 0.9 7.8 0.00 0.02 0.02 52 1019.5
20260905000554 83 286 2.6 7.8 0.00 0.02 0.02 52 1019.5
20260904235556 83 259 2.6 7.0 0.00 0.02 0.02 51 1019.3
20260904235059 83 285 1.7 7.0 0.01 0.02 0.02 52 1019.2
20260904234601 83 286 1.7 7.0 0.02 0.02 0.02 49 1019.1
20260904234057 84 300 0.9 7.0 0.02 0.02 0.02 49 1019.1
20260904233557 84 266 0.9 8.7 0.02 0.02 0.02 52 1019.1
20260904233100 84 288 2.6 8.7 0.02 0.02 0.02 51 1019.2
20260904232553 84 271 3.5 8.7 0.02 0.02 0.02 50 1019.2
20260904232053 83 317 3.5 7.0 0.02 0.02 0.02 52 1019.2
20260904231606 82 308 1.7 4.3 0.02 0.02 0.02 55 1019.2
20260904231055 81 300 0.9 3.5 0.02 0.02 0.02 56 1019.2
20260904230555 80 293 0.9 4.3 0.02 0.02 0.02 63 1019.4
20260904230105 80 310 0.0 6.1 0.02 0.02 0.02 67 1019.4
20260904225557 81 309 1.7 7.8 0.02 0.02 0.02 63 1019.5
20260904225057 82 287 4.3 7.8 0.01 0.01 0.01 58 1019.5
20260904224602 82 289 3.5 7.0 0.00 0.00 0.00 53 1019.6
20260904224100 82 322 2.6 7.8 0.00 0.00 0.00 54 1019.6
20260904223556 82 333 2.6 7.8 0.00 0.00 0.00 55 1019.7
20260904223104 83 296 4.3 7.8 0.00 0.00 0.00 54 1019.7
20260904222555 83 338 3.5 7.0 0.00 0.00 0.00 53 1019.7
20260904222055 84 326 2.6 7.0 0.00 0.00 0.00 51 1019.6
20260904221606 84 301 2.6 6.1 0.00 0.00 0.00 49 1019.8
20260904221058 84 328 2.6 7.0 0.00 0.00 0.00 48 1019.6
20260904220555 84 295 2.6 7.0 0.00 0.00 0.00 48 1019.7
20260904220109 83 311 3.5 6.1 0.00 0.00 0.00 51 1019.7
20260904215554 82 290 3.5 7.8 0.00 0.00 0.00 54 1019.6
20260904215058 82 320 4.3 7.8 0.00 0.00 0.00 55 1019.7
20260904214600 81 348 1.7 6.1 0.00 0.00 0.00 57 1019.8
20260904214056 80 291 3.5 6.1 0.00 0.00 0.00 58 1019.8
20260904213555 80 300 3.5 6.1 0.00 0.00 0.00 57 1019.9
20260904213109 80 315 3.5 6.1 0.00 0.00 0.00 59 1019.9
20260904212555 80 327 2.6 7.0 0.00 0.00 0.00 60 1020.1
20260904212055 80 295 2.6 7.0 0.00 0.00 0.00 59 1020.1
20260904211601 80 317 3.5 7.0 0.00 0.00 0.00 61 1020.1
20260904211055 81 288 3.5 11.3 0.00 0.00 0.00 60 1020.2
20260904210556 81 303 6.1 11.3 0.00 0.00 0.00 58 1020.2
20260904210104 81 290 5.2 8.7 0.00 0.00 0.00 56 1020.3
20260904205554 82 290 6.1 9.6 0.00 0.00 0.00 55 1020.3
20260904205055 83 283 4.3 9.6 0.00 0.00 0.00 53 1020.4
20260904204604 83 328 6.1 9.6 0.00 0.00 0.00 52 1020.3
20260904204059 84 359 0.9 2.6 0.00 0.00 0.00 48 1020.2
20260904203554 83 53 0.0 3.5 0.00 0.00 0.00 49 1020.3
20260904203104 83 53 1.7 5.2 0.00 0.00 0.00 48 1020.4
20260904202556 84 30 1.7 5.2 0.00 0.00 0.00 48 1020.4
20260904202054 84 27 2.6 5.2 0.00 0.00 0.00 48 1020.5
20260904201558 84 32 2.6 4.3 0.00 0.00 0.00 49 1020.5
20260904201054 83 30 1.7 4.3 0.00 0.00 0.00 51 1020.6
20260904200555 82 25 1.7 4.3 0.00 0.00 0.00 52 1020.7
20260904200105 82 355 1.7 4.3 0.00 0.00 0.00 52 1020.9
20260904195554 82 355 2.6 5.2 0.00 0.00 0.00 53 1020.9
20260904195059 82 360 2.6 5.2 0.00 0.00 0.00 53 1021.0
20260904194634 82 2 2.6 4.3 0.00 0.00 0.00 53 1021.0
20260904194055 82 356 1.7 4.3 0.00 0.00 0.00 52 1021.0
20260904193556 82 356 1.7 6.1 0.00 0.00 0.00 53 1021.1
20260904193103 82 348 2.6 6.1 0.00 0.00 0.00 52 1021.2
20260904192600 83 323 2.6 5.2 0.00 0.00 0.00 52 1021.4
20260904192056 83 299 1.7 5.2 0.00 0.00 0.00 52 1021.5
20260904191602 83 23 2.6 4.3 0.00 0.00 0.00 52 1021.5
20260904191054 82 32 1.7 4.3 0.00 0.00 0.00 55 1021.5
20260904190555 82 30 1.7 3.5 0.00 0.00 0.00 54 1021.5
20260904185555 81 0 1.7 4.3 0.00 0.00 0.00 54 1021.8
20260904185055 81 29 1.7 4.3 0.00 0.00 0.00 54 1021.8
20260904184604 82 65 0.9 3.5 0.00 0.00 0.00 54 1022.0
20260904184055 82 65 0.9 3.5 0.00 0.00 0.00 54 1022.0
20260904183555 81 0 0.9 3.5 0.00 0.00 0.00 54 1022.0
20260904183116 81 0 0.0 4.3 0.00 0.00 0.00 55 1022.0
20260904182556 81 46 2.6 6.1 0.00 0.00 0.00 55 1022.1
20260904182052 82 274 1.7 6.1 0.00 0.00 0.00 54 1022.1
20260904181610 82 0 1.7 5.2 0.00 0.00 0.00 55 1022.1
20260904181053 81 13 3.5 5.2 0.00 0.00 0.00 57 1022.1
20260904180554 80 356 2.6 4.3 0.00 0.00 0.00 59 1022.3
20260904180106 80 358 0.9 6.1 0.00 0.00 0.00 57 1022.3
20260904175555 80 359 0.9 6.1 0.00 0.00 0.00 57 1022.3